Weather History for Taos, NM

Change the Weather History Date:

Tuesday, December 11, 2012

  Actual Average Record
Temperature  
Mean Temperature 16 °F -  
Max Temperature 33 °F 39 °F 55 °F (2004)
Min Temperature -2 °F 9 °F -4 °F (2013)
Degree Days  
Heating Degree Days 50    
Moisture  
Dew Point 2 °F    
Average Humidity 59    
Maximum Humidity 92    
Minimum Humidity 30    
Precipitation  
Precipitation 0.00 in - - ()
Sea Level Pressure  
Sea Level Pressure 30.04 in    
Wind  
Wind Speed 4 mph (North)    
Max Wind Speed 10 mph    
Max Gust Speed 18 mph    
Visibility 10 miles    
Events      
Averages and records for this station are not official NWS values.
T = Trace of Precipitation, MM = Missing Value Source: NWS Daily Summary

Daily Weather History Graph

Daily Weather History Graph

Search for Another Location

Airport:

Trip Planner

Search our weather history database for the weather conditions in past years. The results will help you decide how hot, cold, wet, or windy it might be!

Date:

Astronomy

Dec. 11, 2012 Rise Set
Actual Time 7:04 AM MST 4:47 PM MST
Civil Twilight 6:36 AM MST 5:16 PM MST
Nautical Twilight 6:03 AM MST 5:48 PM MST
Astronomical Twilight 5:32 AM MST 6:19 PM MST
Moon 5:04 AM MST (12/11) 3:28 PM MST (12/11)
Length of Visible Light 10h 40m
Length of Day
9h 42m
Waning Crescent, 4% of the Moon is Illuminated
Dec 11
Waning Crescent
Dec 13
New
Dec 19
First Quarter
Dec 28
Full
Jan 4
Last Quarter

Hourly Weather History & Observations

Time (MST) Temp. Windchill Dew Point Humidity Pressure Visibility Wind Dir Wind Speed Gust Speed Precip Events Conditions
12:15 AM 6.8 °F -0.1 °F -5.8 °F 56% 29.99 in 10.0 mi North 3.5 mph - N/A   Clear
12:35 AM 6.8 °F -2.0 °F -2.2 °F 67% 29.99 in 10.0 mi North 4.6 mph - N/A   Clear
12:55 AM 5.0 °F -6.9 °F -2.2 °F 72% 29.99 in 10.0 mi North 6.9 mph - N/A   Clear
1:15 AM 3.2 °F -7.8 °F -2.2 °F 78% 29.99 in 10.0 mi North 5.8 mph - N/A   Clear
1:35 AM 3.2 °F - -2.2 °F 78% 29.99 in 10.0 mi Calm Calm - N/A   Clear
1:55 AM 3.2 °F -6.2 °F -2.2 °F 78% 30.00 in 10.0 mi NE 4.6 mph - N/A   Clear
2:15 AM 6.8 °F - -0.4 °F 72% 29.99 in 10.0 mi Calm Calm - N/A   Clear
2:35 AM 3.2 °F - -2.2 °F 78% 29.99 in 10.0 mi Calm Calm - N/A   Clear
2:55 AM 3.2 °F - -2.2 °F 78% 30.00 in 10.0 mi Calm Calm - N/A   Clear
3:15 AM 1.4 °F - -4.0 °F 78% 29.99 in 10.0 mi Calm Calm - N/A   Clear
3:35 AM 3.2 °F -6.2 °F -0.4 °F 85% 30.00 in 10.0 mi North 4.6 mph - N/A   Clear
3:55 AM 3.2 °F -7.8 °F -0.4 °F 85% 30.00 in 10.0 mi North 5.8 mph - N/A   Clear
4:15 AM 3.2 °F -6.2 °F -2.2 °F 78% 30.01 in 10.0 mi North 4.6 mph - N/A   Clear
4:35 AM 1.4 °F - -5.8 °F 72% 30.01 in 10.0 mi Calm Calm - N/A   Clear
4:55 AM 5.0 °F -2.1 °F 3.2 °F 92% 30.02 in 10.0 mi NNE 3.5 mph - N/A   Clear
5:15 AM 3.2 °F -4.2 °F -9.4 °F 56% 30.02 in 10.0 mi NNE 3.5 mph - N/A   Clear
5:35 AM 1.4 °F - -7.6 °F 66% 30.02 in 10.0 mi Calm Calm - N/A   Clear
5:55 AM 1.4 °F - -5.8 °F 72% 30.03 in 10.0 mi Calm Calm - N/A   Clear
6:15 AM 1.4 °F - -7.6 °F 66% 30.04 in 10.0 mi Calm Calm - N/A   Clear
6:35 AM 1.4 °F -8.3 °F -5.8 °F 72% 30.03 in 10.0 mi North 4.6 mph - N/A   Clear
7:15 AM -2.2 °F -14.2 °F -5.8 °F 85% 30.04 in 10.0 mi North 5.8 mph - N/A   Clear
7:35 AM -0.4 °F -10.4 °F -7.6 °F 72% 30.05 in 10.0 mi North 4.6 mph - N/A   Clear
7:55 AM 3.2 °F -7.8 °F -0.4 °F 85% 30.05 in 10.0 mi North 5.8 mph - N/A   Clear
8:15 AM 6.8 °F -2.0 °F 3.2 °F 85% 30.06 in 10.0 mi North 4.6 mph - N/A   Clear
8:35 AM 8.6 °F -1.3 °F 1.4 °F 73% 30.07 in 10.0 mi North 5.8 mph - N/A   Clear
8:55 AM 12.2 °F 4.3 °F 6.8 °F 79% 30.07 in 10.0 mi North 4.6 mph - N/A   Clear
9:15 AM 15.8 °F 7.2 °F 6.8 °F 68% 30.08 in 10.0 mi North 5.8 mph - N/A   Clear
9:35 AM 17.6 °F 10.7 °F 6.8 °F 63% 30.08 in 10.0 mi North 4.6 mph - N/A   Clear
9:55 AM 21.2 °F - 8.6 °F 58% 30.08 in 10.0 mi Calm Calm - N/A   Clear
10:15 AM 24.8 °F - 8.6 °F 50% 30.08 in 10.0 mi Calm Calm - N/A   Clear
10:35 AM 24.8 °F - 8.6 °F 50% 30.08 in 10.0 mi Calm Calm - N/A   Clear
10:55 AM 26.6 °F 22.6 °F 10.4 °F 51% 30.08 in 10.0 mi NW 3.5 mph - N/A   Clear
11:15 AM 28.4 °F 23.3 °F 8.6 °F 43% 30.07 in 10.0 mi NNW 4.6 mph - N/A   Clear
11:35 AM 30.2 °F 24.3 °F 6.8 °F 37% 30.07 in 10.0 mi North 5.8 mph - N/A   Clear
11:55 AM 30.2 °F - 6.8 °F 37% 30.06 in 10.0 mi Calm Calm - N/A   Clear
12:15 PM 30.2 °F 23.4 °F 6.8 °F 37% 30.05 in 10.0 mi North 6.9 mph - N/A   Clear
12:35 PM 30.2 °F 24.3 °F 5.0 °F 34% 30.04 in 10.0 mi NW 5.8 mph - N/A   Clear
12:55 PM 30.2 °F - 3.2 °F 32% 30.03 in 10.0 mi Calm Calm - N/A   Clear
1:15 PM 33.8 °F 29.6 °F 6.8 °F 32% 30.03 in 10.0 mi NNW 4.6 mph - N/A   Clear
1:35 PM 32.0 °F 24.8 °F 3.2 °F 30% 30.01 in 10.0 mi SW 8.1 mph - N/A   Clear
1:55 PM 33.8 °F 26.4 °F 5.0 °F 30% 30.01 in 10.0 mi WNW 9.2 mph - N/A   Clear
2:15 PM 33.8 °F 27.7 °F 6.8 °F 32% 30.02 in 10.0 mi West 6.9 mph 18.4 mph N/A   Clear
2:35 PM 33.8 °F 27.0 °F 6.8 °F 32% 30.02 in 10.0 mi West 8.1 mph - N/A   Clear
2:55 PM 32.0 °F 24.2 °F 5.0 °F 32% 30.02 in 10.0 mi SW 9.2 mph - N/A   Clear
3:15 PM 32.0 °F 25.6 °F 5.0 °F 32% 30.03 in 10.0 mi SW 6.9 mph - N/A   Clear
3:35 PM 32.0 °F 24.2 °F 3.2 °F 30% 30.03 in 10.0 mi SSW 9.2 mph - N/A   Clear
3:55 PM 32.0 °F 25.6 °F 3.2 °F 30% 30.03 in 10.0 mi WSW 6.9 mph - N/A   Clear
4:15 PM 30.2 °F 23.4 °F 5.0 °F 34% 30.03 in 10.0 mi WSW 6.9 mph - N/A   Clear
4:35 PM 28.4 °F 24.6 °F 5.0 °F 37% 30.03 in 10.0 mi SW 3.5 mph - N/A   Clear
4:55 PM 26.6 °F - 3.2 °F 37% 30.03 in 10.0 mi Calm Calm - N/A   Clear
5:15 PM 21.2 °F 13.6 °F 3.2 °F 46% 30.04 in 10.0 mi ENE 5.8 mph - N/A   Clear
5:35 PM 19.4 °F 9.5 °F 3.2 °F 49% 30.03 in 10.0 mi East 8.1 mph - N/A   Clear
5:55 PM 21.2 °F 11.7 °F 6.8 °F 54% 30.04 in 10.0 mi ENE 8.1 mph - N/A   Clear
6:15 PM 21.2 °F - 5.0 °F 50% 30.05 in 10.0 mi Calm Calm - N/A   Clear
6:35 PM 17.6 °F 10.7 °F 1.4 °F 49% 30.06 in 10.0 mi ESE 4.6 mph - N/A   Clear
6:55 PM 15.8 °F 10.2 °F 1.4 °F 53% 30.06 in 10.0 mi ESE 3.5 mph - N/A   Clear
7:15 PM 12.2 °F 6.1 °F -0.4 °F 57% 30.06 in 10.0 mi East 3.5 mph - N/A   Clear
7:35 PM 12.2 °F 4.3 °F 3.2 °F 67% 30.06 in 10.0 mi East 4.6 mph - N/A   Clear
7:55 PM 12.2 °F - 1.4 °F 62% 30.07 in 10.0 mi Calm Calm - N/A   Clear
8:15 PM 12.2 °F 4.3 °F 1.4 °F 62% 30.08 in 10.0 mi NNE 4.6 mph - N/A   Clear
8:35 PM 14.0 °F - 3.2 °F 62% 30.08 in 10.0 mi Calm Calm - N/A   Clear
8:55 PM 12.2 °F - 1.4 °F 62% 30.08 in 10.0 mi Calm Calm - N/A   Clear
9:15 PM 12.2 °F 6.1 °F 3.2 °F 67% 30.09 in 10.0 mi East 3.5 mph - N/A   Clear
9:35 PM 12.2 °F 1.7 °F 3.2 °F 67% 30.08 in 10.0 mi ESE 6.9 mph - N/A   Clear
9:55 PM 12.2 °F -0.2 °F 1.4 °F 62% 30.07 in 10.0 mi East 9.2 mph - N/A   Clear
10:15 PM 12.2 °F 4.3 °F 3.2 °F 67% 30.08 in 10.0 mi ENE 4.6 mph - N/A   Clear
10:35 PM 10.4 °F - -2.2 °F 57% 30.08 in 10.0 mi Calm Calm - N/A   Clear
10:55 PM 10.4 °F - -2.2 °F 57% 30.09 in 10.0 mi Calm Calm - N/A   Clear
11:15 PM 10.4 °F 2.2 °F -4.0 °F 52% 30.09 in 10.0 mi North 4.6 mph - N/A   Clear
11:35 PM 6.8 °F -2.0 °F 1.4 °F 79% 30.09 in 10.0 mi North 4.6 mph - N/A   Clear
11:55 PM 8.6 °F -5.5 °F -0.4 °F 67% 30.09 in 10.0 mi North 10.4 mph - N/A   Clear